When you browse on this site, cookies collect data to enhance your experience and personalize the content and advertising you see.
Visit our Privacy Policy to learn more. By continuing to use the site, you agree to this use of cookies and data.
  • In France
  • List of Countries
  • For 7 days
  • Water Temperature
  • Satellite Maps
  • Weather Map
  • Weather Widgets
  • user-avatar
    Login

    Hourly Weather Fleet

    Today, 18 June, Tuesday

    Time Temperature Precipitation Wind Pressure Humidity
    00:00 +10°C° 0 mm 2 mps 755 mmHg 91%
    01:00 +11°C° 0 mm 1 mps 754 mmHg 91%
    02:00 +10°C° 0 mm 1 mps 754 mmHg 90%
    03:00 +10°C° 0 mm 1 mps 754 mmHg 90%
    04:00 +11°C° 0 mm 1 mps 754 mmHg 88%
    05:00 +11°C° 0 mm 0 mps 754 mmHg 85%
    06:00 +12°C° 0 mm 0 mps 753 mmHg 83%
    07:00 +13°C° 0 mm 0 mps 753 mmHg 80%
    08:00 +14°C° 0 mm 0 mps 753 mmHg 76%
    09:00 +16°C° 0 mm 0 mps 753 mmHg 73%
    10:00 +16°C° 0.3 mm 1 mps 753 mmHg 77%
    11:00 +16°C° 0.3 mm 2 mps 753 mmHg 82%
    12:00 +16°C° 0.3 mm 2 mps 752 mmHg 87%
    13:00 +16°C° 0.1 mm 2 mps 752 mmHg 88%
    14:00 +16°C° 0.1 mm 2 mps 752 mmHg 89%
    15:00 +16°C° 0.1 mm 2 mps 751 mmHg 90%
    16:00 +16°C° 0.2 mm 2 mps 751 mmHg 90%
    17:00 +16°C° 0.2 mm 2 mps 751 mmHg 90%
    18:00 +16°C° 0.2 mm 3 mps 751 mmHg 90%
    19:00 +14°C° 0 mm 3 mps 750 mmHg 91%
    20:00 +15°C° 0 mm 2 mps 750 mmHg 92%
    21:00 +14°C° 0 mm 2 mps 750 mmHg 94%
    22:00 +14°C° 0 mm 2 mps 750 mmHg 94%
    23:00 +14°C° 0 mm 2 mps 749 mmHg 94%

    Tomorrow, 19 June, Wednesday

    Time Temperature Precipitation Wind Pressure Humidity
    00:00 +14°C° 0 mm 2 mps 749 mmHg 94%
    01:00 +14°C° 0.9 mm 2 mps 748 mmHg 95%
    02:00 +14°C° 0.9 mm 2 mps 748 mmHg 96%
    03:00 +14°C° 0.9 mm 2 mps 747 mmHg 97%
    04:00 +14°C° 0.5 mm 2 mps 747 mmHg 97%
    05:00 +14°C° 0.5 mm 2 mps 747 mmHg 97%
    06:00 +13°C° 0.5 mm 3 mps 747 mmHg 96%
    07:00 +14°C° 0.1 mm 3 mps 748 mmHg 95%
    08:00 +14°C° 0.1 mm 3 mps 748 mmHg 93%
    09:00 +16°C° 0.1 mm 3 mps 748 mmHg 92%
    10:00 +16°C° 0.1 mm 3 mps 749 mmHg 88%
    11:00 +17°C° 0.1 mm 3 mps 749 mmHg 83%
    12:00 +18°C° 0.1 mm 2 mps 749 mmHg 79%
    13:00 +18°C° 0.4 mm 3 mps 749 mmHg 81%
    14:00 +18°C° 0.4 mm 3 mps 749 mmHg 82%
    15:00 +18°C° 0.4 mm 3 mps 749 mmHg 84%
    16:00 +18°C° 0.2 mm 3 mps 749 mmHg 86%
    17:00 +17°C° 0.2 mm 2 mps 749 mmHg 87%
    18:00 +17°C° 0.2 mm 2 mps 749 mmHg 89%
    19:00 +16°C° 0 mm 2 mps 750 mmHg 91%
    20:00 +15°C° 0 mm 2 mps 750 mmHg 92%
    21:00 +14°C° 0 mm 2 mps 750 mmHg 94%
    22:00 +13°C° 0 mm 2 mps 750 mmHg 93%
    23:00 +12°C° 0 mm 3 mps 750 mmHg 92%

    Day after tomorrow, 20 June, Thursday

    Time Temperature Precipitation Wind Pressure Humidity
    00:00 +11°C° 0 mm 3 mps 750 mmHg 91%
    01:00 +10°C° 0 mm 3 mps 750 mmHg 91%
    02:00 +9°C° 0 mm 3 mps 750 mmHg 91%
    03:00 +8°C° 0 mm 2 mps 750 mmHg 92%
    04:00 +9°C° 0 mm 3 mps 750 mmHg 92%
    05:00 +10°C° 0 mm 3 mps 751 mmHg 92%
    06:00 +11°C° 0 mm 3 mps 751 mmHg 92%
    07:00 +12°C° 0 mm 4 mps 751 mmHg 87%
    08:00 +14°C° 0 mm 4 mps 751 mmHg 81%
    09:00 +15°C° 0 mm 4 mps 752 mmHg 76%
    10:00 +16°C° 0.1 mm 5 mps 752 mmHg 74%
    11:00 +16°C° 0.1 mm 5 mps 752 mmHg 71%
    12:00 +17°C° 0.1 mm 5 mps 752 mmHg 69%
    13:00 +17°C° 0.1 mm 6 mps 752 mmHg 68%
    14:00 +17°C° 0.1 mm 6 mps 752 mmHg 67%
    15:00 +17°C° 0.1 mm 6 mps 752 mmHg 67%
    16:00 +17°C° 0.1 mm 6 mps 753 mmHg 69%
    17:00 +16°C° 0.1 mm 5 mps 753 mmHg 72%
    18:00 +15°C° 0.1 mm 5 mps 753 mmHg 75%
    19:00 +14°C° 0 mm 4 mps 753 mmHg 79%
    20:00 +12°C° 0 mm 4 mps 754 mmHg 83%
    21:00 +10°C° 0 mm 3 mps 754 mmHg 87%
    22:00 +10°C° 0 mm 3 mps 754 mmHg 89%
    23:00 +9°C° 0 mm 3 mps 754 mmHg 91%

    21 June, Friday

    Time Temperature Precipitation Wind Pressure Humidity
    00:00 +8°C° 0 mm 3 mps 754 mmHg 93%
    01:00 +8°C° 0 mm 3 mps 754 mmHg 93%
    02:00 +8°C° 0 mm 3 mps 754 mmHg 94%
    03:00 +8°C° 0 mm 3 mps 754 mmHg 94%
    04:00 +8°C° 0 mm 3 mps 755 mmHg 92%
    05:00 +9°C° 0 mm 3 mps 755 mmHg 91%
    06:00 +10°C° 0 mm 3 mps 755 mmHg 89%
    07:00 +12°C° 0 mm 4 mps 755 mmHg 84%
    08:00 +13°C° 0 mm 4 mps 756 mmHg 78%
    09:00 +15°C° 0 mm 4 mps 756 mmHg 73%
    10:00 +15°C° 0.1 mm 5 mps 756 mmHg 73%
    11:00 +16°C° 0.1 mm 5 mps 756 mmHg 72%
    12:00 +16°C° 0.1 mm 5 mps 756 mmHg 72%
    13:00 +16°C° 0.3 mm 5 mps 756 mmHg 72%
    14:00 +16°C° 0.3 mm 5 mps 756 mmHg 73%
    15:00 +17°C° 0.3 mm 5 mps 756 mmHg 74%
    16:00 +17°C° 0.2 mm 4 mps 756 mmHg 76%
    17:00 +17°C° 0.2 mm 4 mps 757 mmHg 78%
    18:00 +17°C° 0.2 mm 3 mps 757 mmHg 80%
    19:00 +14°C° 0 mm 3 mps 757 mmHg 83%
    20:00 +14°C° 0 mm 2 mps 757 mmHg 86%
    21:00 +12°C° 0 mm 2 mps 757 mmHg 90%
    22:00 +12°C° 0 mm 2 mps 757 mmHg 90%
    23:00 +11°C° 0 mm 1 mps 757 mmHg 90%

    22 June, Saturday

    Time Temperature Precipitation Wind Pressure Humidity
    00:00 +10°C° 0 mm 1 mps 758 mmHg 90%
    01:00 +10°C° 0 mm 1 mps 757 mmHg 90%
    02:00 +9°C° 0 mm 1 mps 757 mmHg 89%
    03:00 +9°C° 0 mm 1 mps 757 mmHg 89%
    04:00 +10°C° 0 mm 1 mps 757 mmHg 87%
    05:00 +10°C° 0 mm 0 mps 758 mmHg 85%
    06:00 +11°C° 0 mm 0 mps 758 mmHg 83%
    07:00 +13°C° 0 mm 0 mps 758 mmHg 79%
    08:00 +14°C° 0 mm 0 mps 758 mmHg 75%
    09:00 +16°C° 0 mm 0 mps 758 mmHg 70%
    10:00 +17°C° 0.1 mm 0 mps 758 mmHg 67%
    11:00 +20°C° 0.1 mm 1 mps 758 mmHg 64%
    12:00 +21°C° 0.1 mm 1 mps 758 mmHg 61%
    13:00 +21°C° 0.2 mm 1 mps 757 mmHg 63%
    14:00 +21°C° 0.2 mm 1 mps 757 mmHg 64%
    15:00 +20°C° 0.2 mm 2 mps 757 mmHg 65%
    16:00 +19°C° 0.3 mm 2 mps 757 mmHg 69%
    17:00 +19°C° 0.3 mm 2 mps 757 mmHg 72%
    18:00 +19°C° 0.3 mm 2 mps 757 mmHg 76%
    19:00 +18°C° 0.1 mm 1 mps 757 mmHg 80%
    20:00 +15°C° 0.1 mm 1 mps 757 mmHg 84%
    21:00 +14°C° 0.1 mm 1 mps 757 mmHg 88%
    22:00 +13°C° 0 mm 1 mps 757 mmHg 88%
    23:00 +13°C° 0 mm 1 mps 757 mmHg 87%

    23 June, Sunday

    Time Temperature Precipitation Wind Pressure Humidity
    00:00 +12°C° 0 mm 1 mps 757 mmHg 87%
    01:00 +12°C° 0 mm 1 mps 757 mmHg 88%
    02:00 +12°C° 0 mm 1 mps 757 mmHg 88%
    03:00 +11°C° 0 mm 1 mps 757 mmHg 89%
    04:00 +12°C° 0 mm 1 mps 757 mmHg 88%
    05:00 +13°C° 0 mm 2 mps 757 mmHg 88%
    06:00 +14°C° 0 mm 2 mps 757 mmHg 87%
    07:00 +14°C° 0 mm 3 mps 757 mmHg 82%
    08:00 +17°C° 0 mm 3 mps 757 mmHg 77%
    09:00 +18°C° 0 mm 4 mps 757 mmHg 71%
    10:00 +19°C° 0.1 mm 4 mps 757 mmHg 68%
    11:00 +20°C° 0.1 mm 4 mps 757 mmHg 65%
    12:00 +21°C° 0.1 mm 5 mps 757 mmHg 62%
    13:00 +21°C° 0 mm 5 mps 757 mmHg 62%
    14:00 +21°C° 0 mm 5 mps 756 mmHg 61%
    15:00 +21°C° 0 mm 6 mps 756 mmHg 61%
    16:00 +20°C° 0 mm 5 mps 756 mmHg 65%
    17:00 +19°C° 0 mm 5 mps 756 mmHg 68%
    18:00 +17°C° 0 mm 5 mps 756 mmHg 71%
    19:00 +16°C° 0 mm 5 mps 756 mmHg 72%
    20:00 +15°C° 0 mm 5 mps 756 mmHg 72%
    21:00 +14°C° 0 mm 5 mps 757 mmHg 72%
    22:00 +14°C° 0 mm 5 mps 756 mmHg 73%
    23:00 +14°C° 0 mm 5 mps 756 mmHg 74%
    Show more